Prescott, AZ

11:37 PM MST on October 22, 2019 (GMT -0700)
Love

Weather History for KPRC - August, 2019

Change the Weather History Date:

Wednesday, August 28, 2019

  Actual Average Record
Temperature  
Mean Temperature 80 °F 72 °F  
Max Temperature 93 °F 86 °F 98 °F (2009)
Min Temperature 68 °F 59 °F 49 °F (1989)
Degree Days  
Heating Degree Days 0    
Month to date heating degree days 0  
Since 1 July heating degree days 0  
Cooling Degree Days 16    
Month to date cooling degree days 364  
Year to date cooling degree days 932  
Growing Degree Days 30 (Base 50)    
Moisture  
Dew Point 52 °F    
Average Humidity 38    
Maximum Humidity 55    
Minimum Humidity 23    
Precipitation  
Precipitation T in 0.08 in 1.51 in (1951)
Month to date precipitation 0.30 2.40  
Year to date precipitation 8.11 9.44  
Sea Level Pressure  
Sea Level Pressure 29.95 in    
Wind  
Wind Speed 7 mph ()    
Max Wind Speed 24 mph    
Max Gust Speed 33 mph    
Visibility 10.0 miles    
Events Rain , Thunderstorm    
T = Trace of Precipitation, MM = Missing Value Source: Averaged Metar Reports

Daily Weather History Graph

Daily Weather History Graph

Search for Another Location

Airport or City:

Astronomy

Aug. 28, 2019 Rise Set
Actual Time 5:59 AM MST 7:01 PM MST
Civil Twilight 5:33 AM MST 7:27 PM MST
Nautical Twilight 5:02 AM MST 7:58 PM MST
Astronomical Twilight 4:31 AM MST 8:29 PM MST
Moon 3:44 AM MST (8/28) 6:10 PM MST (8/28)
Length of Visible Light 13h 53m
Length of Day
13h 01m
Waning Crescent, 4% of the Moon is Illuminated
Aug 28
Waning Crescent
Aug 30
New
Sep 5
First Quarter
Sep 13
Full
Sep 21
Last Quarter

Hourly Weather History & Observations

Time (MST) Temp. Heat Index Dew Point Humidity Pressure Visibility Wind Dir Wind Speed Gust Speed Precip Events Conditions
12:53 AM 73.0 °F - 52.0 °F 48% 29.83 in 10.0 mi South 4.6 mph - N/A   Clear
1:53 AM 72.0 °F - 52.0 °F 49% 29.84 in 10.0 mi South 5.8 mph - N/A   Clear
2:53 AM 69.1 °F - 52.0 °F 54% 29.84 in 10.0 mi South 4.6 mph - N/A   Clear
3:53 AM 71.1 °F - 52.0 °F 51% 29.84 in 10.0 mi South 6.9 mph - N/A   Clear
4:53 AM 69.1 °F - 52.0 °F 54% 29.86 in 10.0 mi South 6.9 mph - N/A   Clear
5:53 AM 69.1 °F - 52.0 °F 54% 29.88 in 10.0 mi South 6.9 mph - N/A   Clear
6:53 AM 73.9 °F - 54.0 °F 50% 29.90 in 10.0 mi South 4.6 mph - N/A   Scattered Clouds
7:53 AM 82.0 °F 81.2 °F 53.1 °F 37% 29.91 in 10.0 mi South 5.8 mph - N/A   Clear
8:53 AM 86.0 °F - 52.0 °F 31% 29.92 in 10.0 mi Calm Calm - N/A   Scattered Clouds
9:53 AM 86.0 °F - 52.0 °F 31% 29.94 in 10.0 mi South 9.2 mph - N/A   Mostly Cloudy
10:53 AM 90.0 °F - 51.1 °F 26% 29.94 in 10.0 mi WSW 9.2 mph - N/A   Clear
11:10 AM 91.0 °F - 50.0 °F 24% 30.23 in 10.0 mi West 13.8 mph 23.0 mph N/A Thunderstorm Partly Cloudy
11:25 AM 89.1 °F - 51.1 °F 27% 30.23 in 10.0 mi West 11.5 mph 17.3 mph N/A   Mostly Cloudy
11:53 AM 88.0 °F - 52.0 °F 29% 29.93 in 10.0 mi SSW 11.5 mph - N/A   Scattered Clouds
12:53 PM 79.0 °F - 57.0 °F 47% 29.95 in 10.0 mi North - - 0.00 in Rain , Thunderstorm Light Thunderstorms and Rain
1:53 PM 84.9 °F - 48.0 °F 28% 29.93 in 10.0 mi ESE 16.1 mph 21.9 mph 0.00 in Rain , Thunderstorm Light Thunderstorms and Rain
2:53 PM 90.0 °F - 51.1 °F 26% 29.89 in 10.0 mi NE 9.2 mph - 0.00 in Thunderstorm Scattered Clouds
3:23 PM 88.0 °F - 50.0 °F 27% 30.15 in 10.0 mi NNE 9.2 mph - N/A   Scattered Clouds
3:53 PM 89.1 °F - 48.9 °F 25% 29.86 in 10.0 mi Calm Calm - N/A   Scattered Clouds
4:53 PM 91.0 °F - 48.0 °F 23% 29.85 in 10.0 mi West 8.1 mph 18.4 mph N/A   Mostly Cloudy
5:53 PM 89.1 °F - 51.1 °F 27% 29.86 in 10.0 mi WSW 12.7 mph - N/A   Mostly Cloudy
6:02 PM 89.1 °F - 51.1 °F 27% 30.14 in 10.0 mi West 10.4 mph - N/A   Mostly Cloudy
6:53 PM 84.0 °F 82.6 °F 54.0 °F 35% 29.88 in 10.0 mi North 12.7 mph - N/A   Mostly Cloudy
7:13 PM 81.0 °F - 50.0 °F 34% 30.17 in 10.0 mi North 11.5 mph - N/A Thunderstorm Scattered Clouds
7:14 PM 81.0 °F - 50.0 °F 34% 30.17 in 10.0 mi North 12.7 mph - N/A Thunderstorm Mostly Cloudy
7:53 PM 78.1 °F - 50.0 °F 37% 29.91 in 10.0 mi WNW 10.4 mph - N/A Thunderstorm Mostly Cloudy
8:53 PM 73.0 °F - 53.1 °F 49% 29.93 in 10.0 mi South 4.6 mph - N/A   Clear
9:53 PM 73.9 °F - 51.1 °F 45% 29.94 in 10.0 mi Calm Calm - N/A   Clear
10:53 PM 73.9 °F - 55.0 °F 52% 29.94 in 10.0 mi SE 8.1 mph - N/A   Clear
11:53 PM 73.0 °F - 55.9 °F 55% 29.95 in 10.0 mi SE 5.8 mph - N/A   Clear